This is the latest recevied weather packets stored in our database for station/object KO6HRZ. If no packets are shown the sender has not sent any weather packets the latest 10 day(s).
| Time | Temp. | Humidity | Pressure | Rain* | Wind** | Luminosity | Snow |
|---|---|---|---|---|---|---|---|
| 1777916725 | 15.56° C | 80% | 1015.8 hPa | 0 mm | - | 136 W/m² | - |
| 1777916125 | 15.56° C | 80% | 1015.9 hPa | 0 mm | - | 154 W/m² | - |
| 1777915524 | 15.56° C | 79% | 1015.9 hPa | 0 mm | - | 208 W/m² | - |
| 1777914923 | 15.56° C | 80% | 1015.8 hPa | 0 mm | - | 212 W/m² | - |
| 1777914322 | 15° C | 81% | 1015.8 hPa | 0 mm | - | 199 W/m² | - |
| 1777913721 | 15° C | 81% | 1015.8 hPa | 0 mm | - | 154 W/m² | - |
| 1777913120 | 15° C | 81% | 1015.9 hPa | 0 mm | - | 150 W/m² | - |
| 1777912519 | 15° C | 82% | 1015.9 hPa | 0 mm | - | 181 W/m² | - |
| 1777911918 | 15° C | 84% | 1015.7 hPa | 0 mm | - | 235 W/m² | - |
| 1777911316 | 13.89° C | 84% | 1015.7 hPa | 0 mm | - | 147 W/m² | - |
| 1777910712 | 14.44° C | 85% | 1015.7 hPa | 0 mm | - | 130 W/m² | - |
| 1777910109 | 13.89° C | 86% | 1015.6 hPa | 0 mm | - | 146 W/m² | - |
| 1777909510 | 13.89° C | 87% | 1015.4 hPa | 0 mm | - | 133 W/m² | - |
| 1777908905 | 13.89° C | 88% | 1015.5 hPa | 0 mm | - | 137 W/m² | - |
| 1777908305 | 13.89° C | 89% | 1015.4 hPa | 0 mm | - | 116 W/m² | - |
| 1777907703 | 13.33° C | 90% | 1015.1 hPa | 0 mm | - | 127 W/m² | - |
| 1777907101 | 12.78° C | 89% | 1015.3 hPa | 1.27 mm | - | 105 W/m² | - |
| 1777906496 | 12.78° C | 90% | 1015.4 hPa | 0 mm | - | 102 W/m² | - |
| 1777905894 | 12.78° C | 90% | 1015.1 hPa | 0 mm | - | 49 W/m² | - |
| 1777905294 | 12.78° C | 88% | 1015.3 hPa | 0 mm | - | 29 W/m² | - |
| 1777904695 | 12.78° C | 89% | 1014.9 hPa | 0 mm | - | 19 W/m² | - |
| 1777904094 | 12.78° C | 88% | 1014.9 hPa | 0 mm | - | 13 W/m² | - |
| 1777903493 | 12.78° C | 89% | 1014.7 hPa | 0 mm | - | 11 W/m² | - |
| 1777902891 | 12.22° C | 90% | 1014.8 hPa | 0 mm | - | 9 W/m² | - |
| 1777902291 | 12.22° C | 91% | 1015 hPa | 0 mm | - | 5 W/m² | - |
* Rain latest hour (hover to see other rain measurements)
** Current wind speed in m/s (hover to see current wind gust speed)